DW6440 Weather Reports


Display with metric or nautical units.
time (UTC)temp
F
wind
direction
speed
MPH
gust
MPH
rain 1hr
in
rain 24hr
in
rain mn
in
humidity
%
barometer
mb
20210418165026 59 251 4.0 11.0 0.00 0.00 0.00 55 1009.8
20210418164523 59 51 3.0 8.0 0.00 0.00 0.00 52 1009.8
20210418164023 60 346 3.0 8.0 0.00 0.00 0.00 53 1009.9
20210418163515 60 232 4.0 12.0 0.00 0.00 0.00 55 1009.9
20210418163130 59 259 4.0 12.0 0.00 0.00 0.00 51 1010.0
20210418162926 59 271 4.0 10.0 0.00 0.00 0.00 55 1010.0
20210418162411 59 275 4.0 10.0 0.00 0.00 0.00 57 1010.2
20210418161456 58 254 4.0 9.0 0.00 0.00 0.00 58 1010.1
20210418161011 59 255 5.0 12.0 0.00 0.00 0.00 52 1010.1
20210418160508 59 315 5.0 12.0 0.00 0.00 0.00 55 1010.2
20210418155956 58 297 4.0 11.0 0.00 0.00 0.00 59 1010.3
20210418155800 58 336 5.0 10.0 0.00 0.00 0.00 54 1010.3
20210418155046 59 261 5.0 11.0 0.00 0.00 0.00 59 1010.4
20210418154510 58 235 5.0 11.0 0.00 0.00 0.00 59 1010.3
20210418153957 58 302 4.0 9.0 0.00 0.00 0.00 59 1010.4
20210418153454 58 309 3.0 9.0 0.00 0.00 0.00 60 1010.6
20210418152952 57 254 4.0 10.0 0.00 0.00 0.00 61 1010.5
20210418152706 57 303 5.0 11.0 0.00 0.00 0.00 62 1010.6
20210418152110 57 336 4.0 11.0 0.00 0.00 0.00 60 1010.6
20210418151453 57 267 4.0 9.0 0.00 0.00 0.00 62 1010.6
20210418150957 56 211 4.0 10.0 0.00 0.00 0.00 62 1010.5
20210418150455 56 275 5.0 10.0 0.00 0.00 0.00 62 1010.6
20210418145954 56 339 5.0 10.0 0.00 0.00 0.00 62 1010.7
20210418145738 56 254 4.0 10.0 0.00 0.00 0.00 64 1010.7
20210418145027 56 327 4.0 10.0 0.00 0.00 0.00 66 1010.7
20210418144452 55 319 5.0 11.0 0.00 0.00 0.00 64 1010.8
20210418144018 55 263 4.0 11.0 0.00 0.00 0.00 64 1010.9
20210418143454 55 278 4.0 9.0 0.00 0.00 0.00 64 1010.9
20210418142954 55 313 5.0 9.0 0.00 0.00 0.00 66 1011.0
20210418142813 55 323 5.0 11.0 0.00 0.00 0.00 70 1011.1
20210418142222 55 336 4.0 11.0 0.00 0.00 0.00 65 1011.0
20210418141455 55 273 4.0 8.0 0.00 0.00 0.00 65 1011.0
20210418140952 55 301 4.0 11.0 0.00 0.00 0.00 67 1010.9
20210418140453 54 284 4.0 11.0 0.00 0.00 0.00 69 1010.9
20210418140032 54 355 4.0 9.0 0.00 0.00 0.00 70 1010.9
20210418135841 53 318 4.0 9.0 0.00 0.00 0.00 68 1010.9
20210418135156 53 244 3.0 8.0 0.00 0.00 0.00 70 1010.9
20210418134446 53 302 4.0 9.0 0.00 0.00 0.00 70 1011.0
20210418133939 53 310 4.0 9.0 0.00 0.00 0.00 71 1011.0
20210418133434 52 252 5.0 9.0 0.00 0.00 0.00 72 1011.0
20210418132927 52 0 4.0 9.0 0.00 0.00 0.00 69 1010.9
20210418132715 52 309 4.0 9.0 0.00 0.00 0.00 69 1010.9
20210418131956 52 36 3.0 8.0 0.00 0.00 0.00 70 1010.9
20210418131418 52 10 2.0 7.0 0.00 0.00 0.00 71 1010.9
20210418130905 51 273 2.0 7.0 0.00 0.00 0.00 71 1010.9
20210418130430 51 276 3.0 7.0 0.00 0.00 0.00 72 1010.9
20210418130209 51 266 3.0 8.0 0.00 0.00 0.00 72 1010.9
20210418130023 50 300 3.0 8.0 0.00 0.00 0.00 73 1010.9
20210418125300 50 303 3.0 6.0 0.00 0.00 0.00 75 1011.0
20210418124339 49 286 3.0 8.0 0.00 0.00 0.00 74 1010.9
20210418124041 49 275 2.0 6.0 0.00 0.00 0.00 76 1011.0
20210418123750 49 290 3.0 7.0 0.00 0.00 0.00 78 1010.9
20210418123327 48 269 4.0 7.0 0.00 0.00 0.00 80 1010.9
20210418122901 47 298 3.0 8.0 0.00 0.00 0.00 81 1010.9
20210418121902 47 308 3.0 8.0 0.00 0.00 0.00 81 1010.8
20210418121256 46 269 2.0 7.0 0.00 0.00 0.00 82 1010.8
20210418120904 46 281 1.0 4.0 0.00 0.00 0.00 84 1010.8
20210418120419 45 266 1.0 3.0 0.00 0.00 0.00 85 1010.8
20210418120055 45 266 1.0 4.0 0.00 0.00 0.00 85 1010.8
20210418115848 45 266 2.0 4.0 0.00 0.00 0.00 86 1010.9
20210418114727 45 273 2.0 4.0 0.00 0.00 0.00 86 1010.9
20210418114219 44 273 1.0 4.0 0.00 0.00 0.00 86 1010.9
20210418113715 44 278 1.0 4.0 0.00 0.00 0.00 86 1010.8
20210418113218 44 289 1.0 3.0 0.00 0.00 0.00 87 1010.7
20210418113023 44 289 0.0 3.0 0.00 0.00 0.00 87 1010.7
20210418112733 44 289 0.0 3.0 0.00 0.00 0.00 87 1010.7
20210418111650 43 289 1.0 3.0 0.00 0.00 0.00 87 1010.6
20210418111145 43 289 1.0 2.0 0.00 0.00 0.00 87 1010.6
20210418110639 43 289 1.0 3.0 0.00 0.00 0.00 87 1010.6
20210418110200 43 289 0.0 3.0 0.00 0.00 0.00 88 1010.5
20210418105942 43 289 0.0 1.0 0.00 0.00 0.00 88 1010.5
20210418105458 42 289 0.0 2.0 0.00 0.00 0.00 89 1010.4
20210418104623 42 289 0.0 2.0 0.00 0.00 0.00 88 1010.4
20210418104113 42 289 0.0 2.0 0.00 0.00 0.00 88 1010.3
20210418103631 42 289 0.0 3.0 0.00 0.00 0.00 89 1010.2
20210418103056 42 289 0.0 3.0 0.00 0.00 0.00 89 1010.2
20210418102904 42 298 0.0 1.0 0.00 0.00 0.00 89 1010.2
20210418102433 42 298 0.0 1.0 0.00 0.00 0.00 89 1010.1
20210418101539 42 298 0.0 2.0 0.00 0.00 0.00 89 1010.1
20210418101052 42 298 0.0 2.0 0.00 0.00 0.00 89 1010.0
20210418100526 42 298 0.0 1.0 0.00 0.00 0.00 88 1009.9
20210418100041 42 298 0.0 3.0 0.00 0.00 0.00 88 1009.9
20210418095915 42 298 1.0 4.0 0.00 0.00 0.00 88 1009.8
20210418095419 42 302 1.0 4.0 0.00 0.00 0.00 87 1009.7
20210418094510 43 301 1.0 2.0 0.00 0.00 0.00 87 1009.7
20210418093956 43 300 0.0 2.0 0.00 0.00 0.00 86 1009.7
20210418093452 44 300 0.0 3.0 0.00 0.00 0.00 86 1009.7
20210418092948 44 300 1.0 3.0 0.00 0.00 0.00 86 1009.6
20210418092721 44 300 1.0 4.0 0.00 0.00 0.00 85 1009.6
20210418092058 44 300 1.0 4.0 0.00 0.00 0.00 85 1009.6
20210418091428 45 301 1.0 3.0 0.00 0.00 0.00 85 1009.6
20210418090919 45 309 1.0 4.0 0.00 0.00 0.00 85 1009.6
20210418090423 45 321 1.0 4.0 0.00 0.00 0.00 85 1009.6
20210418090029 45 313 1.0 5.0 0.00 0.00 0.00 86 1009.5
20210418085822 45 313 1.0 5.0 0.00 0.00 0.00 86 1009.6
20210418085033 44 342 1.0 4.0 0.00 0.00 0.00 87 1009.5
20210418084408 44 343 1.0 3.0 0.00 0.00 0.00 88 1009.5
20210418083901 44 343 1.0 3.0 0.00 0.00 0.00 89 1009.5
20210418083406 44 351 1.0 2.0 0.00 0.00 0.00 89 1009.4
20210418082859 44 351 0.0 2.0 0.00 0.00 0.00 90 1009.5
20210418082708 44 351 0.0 0.0 0.00 0.00 0.00 90 1009.4
20210418081919 44 351 0.0 0.0 0.00 0.00 0.00 90 1009.4
20210418081400 44 351 0.0 0.0 0.00 0.00 0.00 90 1009.4
20210418080856 44 351 0.0 0.0 0.00 0.00 0.00 90 1009.4
20210418080359 44 351 0.0 0.0 0.00 0.00 0.00 90 1009.4
20210418080130 44 351 0.0 0.0 0.00 0.00 0.00 90 1009.4
20210418075930 44 351 0.0 0.0 0.00 0.00 0.00 90 1009.4
20210418074934 44 351 0.0 0.0 0.00 0.00 0.00 90 1009.4
20210418074357 44 351 0.0 0.0 0.00 0.00 0.00 90 1009.4
20210418073853 43 351 0.0 0.0 0.00 0.00 0.00 90 1009.3
20210418073357 44 351 0.0 0.0 0.00 0.00 0.00 90 1009.4
20210418072856 43 351 0.0 0.0 0.00 0.00 0.00 90 1009.3
20210418072524 44 351 0.0 0.0 0.00 0.00 0.00 90 1009.3
20210418071914 44 351 0.0 0.0 0.00 0.00 0.00 90 1009.4
20210418071341 44 351 0.0 0.0 0.00 0.00 0.00 89 1009.3
20210418070839 44 351 0.0 0.0 0.00 0.00 0.00 89 1009.3
20210418070335 44 351 0.0 0.0 0.00 0.00 0.00 89 1009.3
20210418065850 44 351 0.0 0.0 0.00 0.00 0.00 89 1009.3
20210418065720 44 351 0.0 0.0 0.00 0.00 0.00 89 1009.3
20210418064919 44 351 0.0 0.0 0.00 0.00 0.00 88 1009.2
20210418064320 44 351 0.0 0.0 0.00 0.00 0.00 88 1009.2
20210418063814 44 351 0.0 0.0 0.00 0.00 0.00 88 1009.2
20210418063326 44 351 0.0 0.0 0.00 0.00 0.00 88 1009.2
20210418062826 44 351 0.0 0.0 0.00 0.00 0.00 88 1009.2
20210418062650 44 351 0.0 0.0 0.00 0.00 0.00 88 1009.2
20210418061830 44 351 0.0 0.0 0.00 0.00 0.00 88 1009.3
20210418061311 44 351 0.0 0.0 0.00 0.00 0.00 88 1009.3
20210418060820 44 351 0.0 0.0 0.00 0.00 0.00 88 1009.3
20210418060314 44 351 0.0 0.0 0.00 0.00 0.00 87 1009.3
20210418060047 44 351 0.0 0.0 0.00 0.00 0.00 87 1009.4
20210418055815 44 355 0.0 0.0 0.00 0.00 0.00 87 1009.4
20210418055030 44 351 0.0 0.0 0.00 0.00 0.00 87 1009.4
20210418054303 44 351 0.0 0.0 0.00 0.00 0.00 87 1009.5
20210418053815 44 351 0.0 0.0 0.00 0.00 0.00 87 1009.5
20210418053302 44 351 0.0 0.0 0.00 0.00 0.00 87 1009.6
20210418052955 44 351 0.0 0.0 0.00 0.00 0.00 87 1009.7
20210418052719 44 351 0.0 0.0 0.00 0.00 0.00 87 1009.6
20210418051931 44 355 0.0 0.0 0.00 0.00 0.00 86 1009.7
20210418051258 44 355 0.0 0.0 0.00 0.00 0.00 85 1009.7
20210418050758 44 351 0.0 0.0 0.00 0.00 0.00 84 1009.6
20210418050257 45 355 0.0 0.0 0.00 0.00 0.00 83 1009.6
20210418045922 45 355 0.0 0.0 0.00 0.00 0.00 83 1009.5
20210418045619 46 355 0.0 0.0 0.00 0.00 0.00 82 1009.5
20210418044845 46 355 0.0 0.0 0.00 0.00 0.00 82 1009.6
20210418044259 46 351 0.0 0.0 0.00 0.00 0.00 82 1009.6
20210418043754 46 351 0.0 0.0 0.00 0.00 0.00 81 1009.6
20210418043252 47 351 0.0 0.0 0.00 0.00 0.00 80 1009.7
20210418042903 47 351 0.0 0.0 0.00 0.00 0.00 80 1009.7
20210418042758 47 351 0.0 0.0 0.00 0.00 0.00 79 1009.7
20210418041921 47 351 0.0 0.0 0.00 0.00 0.00 78 1009.7
20210418041255 47 351 0.0 0.0 0.00 0.00 0.00 79 1009.8
20210418040759 47 351 0.0 0.0 0.00 0.00 0.00 78 1009.7
20210418040254 47 351 0.0 0.0 0.00 0.00 0.00 78 1009.8
20210418035857 47 351 0.0 0.0 0.00 0.00 0.00 77 1009.8
20210418035559 47 351 0.0 1.0 0.00 0.00 0.00 77 1009.7
20210418034802 47 351 0.0 2.0 0.00 0.00 0.00 78 1009.7
20210418034249 48 351 0.0 2.0 0.00 0.00 0.00 76 1009.7
20210418033744 48 351 0.0 1.0 0.00 0.00 0.00 74 1009.7
20210418033242 49 351 0.0 1.0 0.00 0.00 0.00 73 1009.6
20210418032956 49 351 0.0 1.0 0.00 0.00 0.00 73 1009.6
20210418032836 49 355 0.0 2.0 0.00 0.00 0.00 72 1009.6
20210418031752 49 351 0.0 2.0 0.00 0.00 0.00 71 1009.5
20210418031240 49 351 1.0 2.0 0.00 0.00 0.00 70 1009.5
20210418030749 49 351 1.0 3.0 0.00 0.00 0.00 70 1009.6
20210418030328 50 351 1.0 3.0 0.00 0.00 0.00 71 1009.6
20210418030106 50 355 1.0 3.0 0.00 0.00 0.00 70 1009.5
20210418025712 50 355 2.0 3.0 0.00 0.00 0.00 70 1009.5
20210418024822 50 355 2.0 4.0 0.00 0.00 0.00 70 1009.5
20210418024234 50 355 2.0 4.0 0.00 0.00 0.00 71 1009.5
20210418023734 50 28 2.0 5.0 0.00 0.00 0.00 71 1009.5
20210418023228 50 44 2.0 5.0 0.00 0.00 0.00 70 1009.5
20210418022821 50 340 2.0 5.0 0.00 0.00 0.00 70 1009.5
20210418022431 50 339 3.0 6.0 0.00 0.00 0.00 69 1009.6
20210418021716 50 28 2.0 6.0 0.00 0.00 0.00 69 1009.6
20210418021207 50 5 1.0 4.0 0.00 0.00 0.00 69 1009.6
20210418020701 50 279 1.0 3.0 0.00 0.00 0.00 71 1009.5
20210418020211 50 266 1.0 3.0 0.00 0.00 0.00 71 1009.5
20210418015909 50 265 1.0 4.0 0.00 0.00 0.00 70 1009.5
20210418015558 50 265 1.0 4.0 0.00 0.00 0.00 70 1009.5
20210418014634 50 265 1.0 4.0 0.00 0.00 0.00 69 1009.5
20210418014128 50 265 1.0 3.0 0.00 0.00 0.00 70 1009.4
20210418013626 50 266 1.0 4.0 0.00 0.00 0.00 70 1009.5
20210418013300 50 266 1.0 4.0 0.00 0.00 0.00 70 1009.4
20210418013041 50 266 1.0 2.0 0.00 0.00 0.00 70 1009.4
20210418012617 50 266 1.0 3.0 0.00 0.00 0.00 70 1009.3
20210418011559 50 266 1.0 6.0 0.00 0.00 0.00 69 1009.2
20210418011108 51 266 1.0 6.0 0.00 0.00 0.00 68 1009.2
20210418010555 51 265 2.0 4.0 0.00 0.00 0.00 68 1009.2
20210418010047 51 265 1.0 4.0 0.00 0.00 0.00 69 1009.1
20210418005825 51 263 1.0 7.0 0.00 0.00 0.00 67 1009.0
20210418005241 51 263 2.0 7.0 0.00 0.00 0.00 67 1009.0
20210418004532 51 261 2.0 7.0 0.00 0.00 0.00 67 1008.9
20210418004038 51 258 2.0 7.0 0.00 0.00 0.00 68 1008.9
20210418003513 51 261 2.0 7.0 0.00 0.00 0.00 67 1008.7
20210418003010 51 234 2.0 7.0 0.00 0.00 0.00 67 1008.6
20210418002757 51 279 2.0 5.0 0.00 0.00 0.00 66 1008.6
20210418002102 51 282 2.0 5.0 0.00 0.00 0.00 66 1008.6
20210418001455 51 259 2.0 6.0 0.00 0.00 0.00 65 1008.5
20210418000938 52 258 2.0 7.0 0.00 0.00 0.00 66 1008.5
20210418000429 52 269 3.0 7.0 0.00 0.00 0.00 65 1008.5
20210417235926 52 275 3.0 9.0 0.00 0.00 0.00 64 1008.3
20210417235818 52 263 3.0 9.0 0.00 0.00 0.00 65 1008.3
20210417235050 52 311 3.0 8.0 0.00 0.00 0.00 64 1008.2
20210417234428 52 269 3.0 8.0 0.00 0.00 0.00 64 1008.2
20210417233908 52 260 3.0 8.0 0.00 0.00 0.00 63 1008.1
20210417233355 53 243 3.0 8.0 0.00 0.00 0.00 63 1008.1
20210417232923 53 277 3.0 8.0 0.00 0.00 0.00 63 1008.0
20210417232638 53 244 2.0 8.0 0.00 0.00 0.00 62 1008.0
20210417231924 53 277 3.0 7.0 0.00 0.00 0.00 61 1008.0
20210417231332 53 255 3.0 7.0 0.00 0.00 0.00 61 1008.0
20210417230824 53 288 3.0 6.0 0.00 0.00 0.00 61 1007.9
20210417230327 53 269 2.0 6.0 0.00 0.00 0.00 60 1008.0
20210417225953 53 249 2.0 8.0 0.00 0.00 0.00 60 1007.9
20210417225738 53 255 2.0 8.0 0.00 0.00 0.00 59 1008.0
20210417224819 54 275 2.0 5.0 0.00 0.00 0.00 60 1007.9
20210417224256 54 266 2.0 8.0 0.00 0.00 0.00 59 1008.0
20210417223750 54 265 2.0 8.0 0.00 0.00 0.00 59 1007.8
20210417223247 54 276 2.0 8.0 0.00 0.00 0.00 60 1007.8
20210417222951 54 276 3.0 8.0 0.00 0.00 0.00 57 1007.8
20210417222835 54 265 3.0 8.0 0.00 0.00 0.00 58 1007.7
20210417221903 54 277 3.0 10.0 0.00 0.00 0.00 57 1007.6
20210417221218 54 288 2.0 10.0 0.00 0.00 0.00 59 1007.6
20210417220712 54 303 2.0 5.0 0.00 0.00 0.00 58 1007.6
20210417220222 54 295 2.0 9.0 0.00 0.00 0.00 59 1007.6
20210417215752 55 265 2.0 9.0 0.00 0.00 0.00 58 1007.6
20210417215253 55 258 3.0 9.0 0.00 0.00 0.00 57 1007.5
20210417214647 55 248 4.0 11.0 0.00 0.00 0.00 57 1007.5
20210417214141 55 263 3.0 11.0 0.00 0.00 0.00 57 1007.5
20210417213639 55 218 3.0 7.0 0.00 0.00 0.00 56 1007.6
20210417213136 54 304 3.0 8.0 0.00 0.00 0.00 57 1007.5
20210417212817 54 288 3.0 8.0 0.00 0.00 0.00 56 1007.6
20210417212315 54 294 4.0 9.0 0.00 0.00 0.00 56 1007.5
20210417211616 55 284 4.0 9.0 0.00 0.00 0.00 56 1007.5
20210417211104 54 298 3.0 9.0 0.00 0.00 0.00 58 1007.5
20210417210618 54 274 3.0 10.0 0.00 0.00 0.00 57 1007.5
20210417210058 55 290 4.0 10.0 0.00 0.00 0.00 55 1007.5
20210417205851 55 309 4.0 11.0 0.00 0.00 0.00 55 1007.5
20210417205411 55 288 4.0 11.0 0.00 0.00 0.00 53 1007.3
20210417204537 55 283 5.0 15.0 0.00 0.00 0.00 55 1007.3
20210417204105 56 277 5.0 15.0 0.00 0.00 0.00 54 1007.3
20210417203540 56 298 4.0 9.0 0.00 0.00 0.00 53 1007.2
20210417203023 56 318 5.0 13.0 0.00 0.00 0.00 53 1007.2
20210417202751 56 302 5.0 13.0 0.00 0.00 0.00 54 1007.3
20210417202134 56 275 5.0 11.0 0.00 0.00 0.00 54 1007.1
20210417201516 56 264 5.0 13.0 0.00 0.00 0.00 54 1007.2
20210417201021 56 321 5.0 13.0 0.00 0.00 0.00 52 1007.2
20210417200512 57 262 5.0 13.0 0.00 0.00 0.00 54 1007.1
20210417200029 57 324 5.0 13.0 0.00 0.00 0.00 52 1007.1
20210417195739 57 280 5.0 12.0 0.00 0.00 0.00 55 1007.1
20210417195200 57 252 6.0 14.0 0.00 0.00 0.00 56 1007.2
20210417194524 56 298 6.0 14.0 0.00 0.00 0.00 54 1007.2
20210417194025 57 290 5.0 12.0 0.00 0.00 0.00 55 1007.2
20210417193523 57 339 5.0 12.0 0.00 0.00 0.00 53 1007.3
20210417193026 57 173 6.0 12.0 0.00 0.00 0.00 51 1007.3
20210417192817 58 269 6.0 14.0 0.00 0.00 0.00 53 1007.5
20210417192157 58 312 5.0 14.0 0.00 0.00 0.00 56 1007.5
20210417191521 57 331 6.0 14.0 0.00 0.00 0.00 55 1007.5
20210417191026 57 327 6.0 14.0 0.00 0.00 0.00 53 1007.6
20210417190526 58 336 6.0 14.0 0.00 0.00 0.00 54 1007.6
20210417190029 57 266 6.0 12.0 0.00 0.00 0.00 57 1007.7
20210417185738 57 313 7.0 15.0 0.00 0.00 0.00 56 1007.7
20210417185026 56 262 6.0 16.0 0.00 0.00 0.00 57 1007.7
20210417184500 56 256 5.0 16.0 0.00 0.00 0.00 60 1007.8
20210417184021 56 275 5.0 11.0 0.00 0.00 0.00 56 1007.7
20210417183512 56 311 5.0 12.0 0.00 0.00 0.00 59 1007.8
20210417183020 55 299 5.0 13.0 0.00 0.00 0.00 56 1007.9
20210417182855 55 311 6.0 14.0 0.00 0.00 0.00 58 1008.0
20210417182256 56 281 5.0 14.0 0.00 0.00 0.00 57 1007.9
20210417181501 55 322 5.0 12.0 0.00 0.00 0.00 62 1007.9
20210417181020 55 275 6.0 12.0 0.00 0.00 0.00 57 1007.9
20210417180520 56 269 6.0 12.0 0.00 0.00 0.00 56 1007.9
20210417175959 55 0 5.0 12.0 0.00 0.00 0.00 61 1008.0
20210417175747 54 282 5.0 12.0 0.00 0.00 0.00 57 1008.0
20210417175204 55 299 4.0 10.0 0.00 0.00 0.00 59 1007.8
20210417174459 55 267 5.0 12.0 0.00 0.00 0.00 60 1008.0
20210417174012 54 276 5.0 12.0 0.00 0.00 0.00 59 1008.0
20210417173507 55 273 5.0 11.0 0.00 0.00 0.00 57 1008.0
20210417173006 54 306 6.0 16.0 0.00 0.00 0.00 60 1007.9
20210417172832 54 302 5.0 16.0 0.00 0.00 0.00 59 1007.9
20210417172040 55 17 3.0 8.0 0.00 0.00 0.00 62 1008.0
20210417171500 54 271 5.0 16.0 0.00 0.00 0.00 59 1008.0
20210417171000 55 273 5.0 16.0 0.00 0.00 0.00 62 1008.0
20210417170509 55 317 5.0 13.0 0.00 0.00 0.00 61 1007.8
20210417165957 53 355 5.0 13.0 0.00 0.00 0.00 65 1008.0
20210417165754 52 315 6.0 14.0 0.00 0.00 0.00 59 1008.0